Probability
0 0 0 0 0 0 0 0 0 0 0 0 0 0 0 0 0 0 0 0 0 0 0 0 0 0 0 0 0 0 0 0 0 0 0 0 0 0 0 0 0 0 0 0
0 0 0 0 0 0 0 0 0 0 0 0 0 0 0 0 0 0 0 0 0 0 0 0 0 0 0 0 0 0 0 0 0 0 0 0 0 0 0 0 0 0 0 0
0 0 0 0 0 0 0 0 0 0 0 0 0 0 0 0 0 0 0 0 0 0 0 0 0 0 0 0 0 0 0 0 0 0 0 0 0 0 0 0 0 0 0 0
0 0 0 0 0 0 0 0 0 0 0 0 0 0 0 0 0 0 0 0 0 0 0 0 0 0 0 0 0 0 0 0 0 0 0 0 0 0 0 0 0 0 0 0
0 0 0 0 0 0 0 0 0 0 0 0 0 0 0 0 0 0 0 0 0 0 0 0 0 0 0 0 0 0 0 0 0 0 0 0 0 0 0 0 0 0 0 0
0 0 0 0 0 0 0 0 0 0 0 0 0 0 0 0 0 0 0 0 0 0 0 0 0 0 0 0 0 0 0 0 0 0 0 0 0 0 0 0 0 0 0 0
0 0 0 0 0 0 0 0 0 0 0 0 0 0 0 0 0 0 0 0 0 0 0 0 0 0 0 0 0 0 0 0 0 0 0 0 0 0 0 0 0 0 0 0
0 0 0 0 0 0 0 0 0 0 0 0 0 0 0 0 0 0 0 0 0 0 0 0 0 0 0 0 0 0 0 0 0 0 0 0 0 0 0 0 0 0 0 0
0 0 0 0 0 0 0 0 0 0 0 0 0 0 0 0 0 0 0 0 0 0 0 0 0 0 0 0 0 0 0 0 0 0 0 0 0 0 0 0 0 0 0 0
0 0 0 0 0 0 0 0 0 0 0 0 0 0 0 0 0 0 0 0 0 0 0 0 0 0 0 0 0 0 0 0 0 0 0 0 0 0 0 0 0 0 0 0
0 0 0 0 0 0 0 0 0 0 0 0 0 0 0 0 0 0 0 0 0 0 0 0 0 0 0 0 0 0 0 0 0 0 0 0 0 0 0 0 0 0 0 0
0 0 0 0 0 0 0 0 0 0 0 0 0 0 0 0 0 0 0 0 0 0 0 0 0 0 0 0 0 0 0 0 0 0 0 0 0 0 0 0 0 0 0 0
0 0 0 0 0 0 0 0 0 0 0 0 0 0 0 0 0 0 0 0 0 0 0 0 0 0 0 0 0 0 0 0 0 0 0 0 0 0 0 0 0 0 0 0
0 0 0 0 0 0 0 0 0 0 0 0 0 0 0 0 0 0 0 0 0 0 0 0 0 0 0 0 0 0 0 0 0 0 0 0 0 0 0 0 0 0 0 0
0 0 0 0 0 0 0 0 0 0 0 0 0 0 0 0 0 0 0 0 0 0 0 0 0 0 0 0 0 0 0 0 0 0 0 0 0 0 0 0 0 0 0 0
0 0 0 0 0 0 0 0 0 0 0 0 0 0 0 0 0 0 0 0 0 0 0 0 0 0 0 0 0 0 0 0 0 0 0 0 0 0 0 0 0 0 0 0
0 0 0 0 0 0 0 0 0 0 0 0 0 0 0 0 0 0 0 0 0 0 0 0 0 0 0 0 0 0 0 0 0 0 0 0 0 0 0 0 0 0 0 0
0 0 0 0 0 0 0 0 0 0 0 0 0 0 0 0 0 0 0 0 0 0 0 0 0 0 0 0 0 0 0 0 0 0 0 0 0 0 0 0 0 0 0 0
0 0 0 0 0 0 0 0 0 0 0 0 0 0 0 0 0 0 0 0 0 0 0 0 0 0 0 0 0 0 0 0 0 0 0 0 0 0 0 0 0 0 0 0
0 0 0 0 0 0 0 0 0 0 0 0 0 0 0 0 0 0 0 0 0 0 0 0 0 0 0 0 0 0 0 0 0 0 0 0 0 0 0 0 0 0 0 0
0 0 0 0 0 0 0 0 0 0 0 0 0 0 0 0 0 0 0 0 0 0 0 0 0 0 0 0 0 0 0 0 0 0 0 0 0 0 0 0 0 0 0 0
0 0 0 0 0 0 0 0 0 0 0 0 0 0 0 0 0 0 0 0 0 0 0 0 0 0 0 0 0 0 0 0 0 0 0 0 0 0 0 0 0 0 0 0
0 0 0 0 0 0 0 0 0 0 0 0 0 0 0 0 0 0 0 0 0 0 0 0 0 0 0 0 0 0 0 0 0 0 0 0 0 0 0 0 0 0 0 0
0 0 0 0 0 0 0 0 0 0 0 0 0 0 0 0 0 0 0 0 0 0 0 0 0 0 0 0 0 0 0 0 0 0 0 0 0 0 0 0 0 0 0 0
0 0 0 0 0 0 0 0 0 0 0 0 0 0 0 0 0 0 0 0 0 0 0 0 0 0 0 0 0 0 0 0 0 0 0 0 0 0 0 0 0 0 0 0
0 0 0 0 0 0 0 0 0 0 0 0 0 0 0 0 0 0 0 0 0 0 0 0 0 0 0 0 0 0 0 0 0 0 0 0 0 0 0 0 0 0 0 0
0 0 0 0 0 0 0 0 0 0 0 0 0 0 0 0 0 0 0 0 0 0 0 0 0 0 0 0 0 0 0 0 0 0 0 0 0 0 0 0 0 0 0 0
Height
5611 5606 5602 5599 5596 5592 5587 5583 5579 5576 5573 5571 5567 5564 5561 5559 5556 5554 5553 5551 5550 5549 5548 5548 5549 5550 5551 5552 5555 5557 5560 5562 5565 5568 5570 5573 5576 5579 5582 5585 5588 5591 5594 5597
5601 5596 5591 5588 5586 5582 5577 5573 5568 5564 5562 5559 5555 5552 5549 5547 5544 5543 5541 5539 5538 5537 5536 5535 5536 5537 5538 5539 5541 5544 5546 5549 5552 5555 5557 5560 5562 5565 5568 5571 5574 5577 5581 5584
5590 5586 5581 5578 5576 5571 5567 5562 5558 5554 5552 5547 5543 5540 5537 5535 5533 5531 5529 5527 5526 5524 5523 5523 5523 5524 5525 5527 5528 5531 5533 5536 5539 5542 5544 5547 5550 5553 5556 5558 5561 5564 5568 5571
5578 5575 5570 5571 5565 5560 5556 5552 5548 5543 5539 5535 5532 5529 5526 5523 5521 5519 5517 5515 5514 5513 5512 5511 5511 5512 5513 5514 5516 5518 5520 5523 5526 5529 5532 5535 5538 5540 5543 5546 5549 5552 5555 5558
5567 5562 5560 5559 5554 5549 5544 5542 5538 5533 5529 5525 5521 5518 5516 5512 5509 5507 5505 5504 5502 5501 5500 5499 5499 5500 5501 5501 5503 5505 5508 5511 5514 5517 5520 5523 5526 5528 5531 5534 5537 5540 5543 5545
5557 5552 5549 5549 5544 5538 5535 5532 5527 5522 5518 5514 5510 5508 5506 5502 5499 5497 5495 5493 5491 5489 5488 5488 5487 5487 5488 5489 5491 5493 5495 5498 5502 5505 5508 5511 5514 5516 5519 5522 5525 5528 5531 5533
5548 5543 5540 5538 5533 5529 5526 5523 5517 5512 5508 5504 5500 5497 5495 5492 5489 5487 5485 5482 5480 5478 5477 5476 5476 5476 5477 5478 5479 5481 5483 5486 5490 5493 5496 5499 5502 5505 5508 5511 5514 5516 5519 5522
5539 5535 5533 5528 5523 5520 5516 5511 5506 5502 5498 5494 5491 5488 5485 5482 5479 5477 5475 5473 5471 5469 5467 5466 5465 5466 5467 5467 5469 5470 5472 5475 5478 5482 5485 5488 5491 5493 5496 5499 5502 5504 5507 5509
5531 5528 5523 5518 5514 5510 5505 5501 5497 5493 5489 5485 5482 5479 5476 5473 5471 5468 5466 5464 5462 5460 5458 5457 5456 5456 5457 5457 5458 5460 5462 5464 5467 5470 5473 5476 5479 5482 5484 5487 5490 5493 5495 5498
5521 5518 5514 5509 5505 5500 5496 5492 5488 5483 5480 5476 5473 5470 5467 5464 5462 5459 5457 5455 5453 5451 5449 5448 5447 5447 5448 5448 5449 5450 5452 5454 5457 5460 5463 5465 5468 5471 5473 5476 5479 5481 5484 5486
5512 5509 5505 5501 5496 5492 5487 5483 5479 5475 5471 5467 5464 5461 5458 5455 5453 5450 5448 5446 5444 5442 5441 5440 5439 5439 5439 5439 5440 5441 5443 5445 5447 5450 5453 5455 5457 5460 5463 5465 5467 5470 5473 5475
5503 5500 5495 5492 5487 5483 5479 5474 5470 5466 5462 5459 5455 5452 5449 5446 5444 5441 5439 5437 5435 5434 5433 5432 5431 5430 5430 5430 5431 5432 5433 5435 5438 5440 5442 5445 5447 5450 5452 5455 5457 5459 5462 5464
5494 5490 5486 5482 5478 5474 5470 5466 5462 5458 5454 5450 5447 5444 5441 5438 5436 5433 5431 5429 5427 5426 5425 5423 5422 5422 5421 5421 5422 5423 5424 5426 5427 5430 5432 5434 5437 5440 5442 5445 5446 5449 5451 5453
5485 5481 5477 5474 5470 5465 5461 5457 5453 5449 5446 5442 5439 5436 5433 5430 5428 5426 5423 5421 5420 5418 5417 5415 5414 5414 5413 5413 5413 5414 5415 5416 5418 5420 5422 5425 5427 5430 5432 5435 5437 5438 5440 5442
5477 5472 5469 5465 5461 5457 5453 5449 5445 5442 5438 5435 5431 5428 5425 5423 5420 5418 5416 5414 5412 5410 5409 5407 5406 5406 5405 5405 5405 5405 5406 5407 5409 5410 5412 5415 5417 5420 5422 5424 5426 5428 5430 5432
5468 5464 5460 5456 5452 5448 5445 5441 5438 5434 5431 5427 5424 5421 5418 5415 5413 5411 5408 5407 5405 5403 5401 5400 5398 5398 5397 5397 5397 5397 5397 5398 5400 5401 5403 5405 5407 5410 5412 5414 5415 5417 5419 5421
5460 5456 5452 5448 5444 5441 5437 5433 5430 5426 5423 5420 5417 5413 5411 5408 5406 5403 5401 5399 5397 5395 5394 5392 5391 5390 5389 5388 5388 5388 5389 5390 5391 5392 5394 5395 5397 5399 5401 5403 5405 5407 5409 5410
5451 5448 5444 5440 5436 5433 5429 5426 5422 5419 5415 5412 5409 5406 5403 5401 5398 5396 5394 5392 5390 5387 5385 5384 5383 5382 5381 5380 5380 5380 5380 5381 5382 5383 5384 5386 5387 5388 5390 5392 5394 5396 5398 5400
5443 5440 5436 5432 5429 5425 5422 5418 5415 5412 5408 5405 5402 5399 5396 5393 5391 5389 5386 5384 5382 5380 5378 5376 5375 5374 5373 5372 5372 5372 5372 5372 5373 5374 5375 5376 5377 5378 5380 5382 5384 5386 5388 5391
5435 5432 5428 5425 5421 5418 5415 5412 5408 5405 5401 5398 5395 5392 5389 5386 5384 5381 5379 5376 5374 5372 5370 5369 5367 5366 5365 5365 5364 5364 5364 5364 5364 5365 5366 5367 5368 5369 5371 5373 5375 5377 5379 5382
5427 5424 5421 5417 5414 5411 5408 5404 5401 5398 5395 5391 5388 5385 5383 5380 5377 5374 5372 5369 5367 5365 5363 5361 5359 5358 5358 5357 5357 5356 5356 5356 5356 5357 5358 5359 5360 5361 5363 5365 5367 5369 5372 5374
5420 5416 5413 5410 5407 5404 5400 5397 5394 5391 5388 5385 5382 5379 5376 5373 5370 5367 5365 5363 5360 5358 5356 5354 5352 5351 5350 5350 5349 5349 5349 5349 5350 5350 5351 5352 5353 5354 5356 5358 5360 5362 5364 5366
5412 5409 5406 5403 5400 5396 5393 5390 5387 5384 5381 5378 5375 5372 5369 5366 5364 5361 5359 5356 5353 5351 5349 5347 5346 5344 5343 5343 5343 5343 5343 5343 5343 5344 5345 5346 5347 5348 5349 5351 5353 5355 5357 5358
5404 5401 5398 5395 5392 5389 5386 5383 5380 5377 5374 5371 5368 5366 5363 5360 5357 5355 5352 5350 5347 5345 5343 5341 5340 5339 5338 5337 5337 5337 5337 5337 5338 5338 5339 5340 5341 5342 5343 5345 5347 5348 5350 5351
5397 5394 5391 5388 5385 5382 5379 5377 5374 5371 5368 5365 5362 5359 5356 5354 5351 5349 5346 5343 5341 5339 5337 5335 5334 5333 5332 5331 5331 5331 5331 5332 5332 5333 5334 5335 5336 5337 5338 5339 5341 5342 5344 5345
5389 5386 5383 5381 5378 5375 5373 5370 5367 5364 5361 5359 5356 5353 5350 5347 5345 5342 5340 5337 5335 5333 5331 5330 5328 5327 5326 5326 5326 5326 5326 5327 5327 5328 5329 5329 5330 5331 5332 5334 5335 5336 5338 5339
5382 5379 5377 5374 5371 5369 5366 5363 5361 5358 5355 5352 5349 5346 5344 5341 5338 5336 5333 5331 5329 5327 5326 5325 5323 5322 5322 5321 5321 5321 5321 5322 5322 5322 5323 5324 5324 5326 5327 5328 5329 5331 5332 5333
Wind_Speed
38 38 38 38 38 38 38 39 41 40 40 38 38 38 38 38 38 38 39 39 39 39 39 40 40 41 41 41 43 43 43 44 44 44 44 44 45 45 46 47 47 48 48 47
37 38 38 38 37 37 37 38 39 39 38 37 38 38 37 38 38 38 38 38 38 38 39 39 40 40 40 40 41 43 43 44 44 44 44 44 43 44 45 45 46 47 48 47
37 37 39 38 36 36 36 36 37 37 37 36 36 36 37 38 38 38 38 38 37 37 38 38 39 40 40 40 41 42 42 43 43 43 43 43 43 43 43 43 44 45 46 47
39 39 38 37 36 35 35 35 35 35 35 36 36 35 36 37 37 38 39 39 38 38 38 38 38 39 40 40 40 41 42 42 42 43 42 42 42 42 42 43 43 43 44 44
39 39 38 35 34 34 34 33 34 34 35 35 35 34 34 36 36 36 37 37 37 37 38 38 38 38 39 39 39 40 41 41 42 42 42 42 42 42 42 42 42 42 42 42
37 37 37 35 34 34 35 34 34 35 35 35 34 33 31 32 33 34 34 34 35 35 36 37 37 37 37 37 38 39 40 41 42 42 41 41 41 41 41 41 41 41 41 41
35 35 35 35 34 34 35 35 34 35 35 34 33 32 31 30 31 31 31 31 32 33 33 34 34 35 35 35 35 36 38 39 40 41 40 40 40 40 41 41 41 41 41 42
35 35 34 34 34 35 35 36 35 35 34 33 32 32 31 30 30 30 30 30 30 31 31 32 32 32 32 33 34 34 36 37 38 39 39 39 39 39 40 40 41 41 41 41
34 34 34 34 34 35 36 36 35 34 34 33 33 32 31 31 31 31 31 30 30 29 29 29 30 30 29 30 32 33 34 36 37 37 38 38 38 38 38 39 39 40 40 40
34 33 34 33 33 34 34 34 34 34 34 33 32 32 31 31 31 31 31 31 30 29 28 28 28 29 29 29 29 30 32 33 34 34 35 36 36 37 37 37 38 38 38 39
33 33 33 32 33 33 33 33 33 33 33 32 31 31 31 30 30 30 29 28 28 27 27 27 27 28 28 29 29 30 30 31 32 33 33 34 35 35 35 35 36 36 37 37
32 32 33 32 32 32 32 32 32 31 31 31 31 30 29 29 29 28 27 27 26 26 26 26 27 27 27 28 29 29 29 31 31 32 33 33 34 34 34 34 34 35 36 36
32 32 32 32 33 33 33 32 32 31 31 30 30 29 28 27 27 27 27 26 26 25 25 25 26 26 26 27 28 28 29 30 31 32 32 33 33 33 33 33 33 34 35 36
32 32 32 32 32 33 32 31 31 31 30 29 28 28 27 26 26 26 25 25 25 24 24 24 24 24 25 26 26 27 27 28 30 31 32 32 32 32 32 33 33 33 34 35
32 32 31 31 31 31 30 30 29 29 28 28 27 27 26 26 25 25 24 24 24 23 23 23 24 24 24 25 25 26 27 27 28 29 31 31 32 32 32 33 33 33 34 34
31 31 31 30 30 30 29 28 28 27 27 27 27 26 25 25 25 24 24 24 24 23 23 23 23 24 24 25 25 26 26 27 28 29 30 31 32 33 34 34 33 33 33 34
30 30 30 30 29 28 28 28 27 27 27 26 26 25 25 25 24 24 24 25 25 25 25 24 23 23 24 25 25 25 26 27 28 28 29 30 31 32 34 34 34 34 34 33
30 29 29 29 28 27 27 27 26 26 25 25 24 24 24 24 24 24 24 25 25 24 24 23 23 22 23 23 23 24 24 25 27 28 29 30 31 31 31 32 32 32 33 32
29 29 29 28 27 27 27 26 25 25 25 25 24 24 24 23 23 24 24 24 24 24 24 23 23 22 22 22 23 23 23 24 26 27 28 29 29 29 29 29 29 29 30 30
29 29 28 28 27 27 26 25 25 25 25 25 24 24 23 23 24 24 24 24 23 23 23 23 23 23 22 23 23 23 23 23 24 25 26 26 26 26 26 27 27 27 27 28
28 28 28 28 27 26 26 25 25 25 25 24 24 24 23 23 23 23 23 23 23 23 22 22 22 22 22 22 22 22 22 22 21 21 22 23 23 24 24 24 24 25 25 26
27 27 27 27 26 26 26 26 26 26 25 24 23 23 23 23 23 22 22 22 22 22 21 21 21 20 20 20 20 19 19 19 19 19 19 19 20 21 22 23 23 23 24 24
27 27 27 27 26 26 25 25 25 25 24 23 22 22 22 22 22 21 21 21 21 20 20 20 19 18 18 18 18 18 18 18 17 17 17 18 18 19 20 21 22 22 22 23
26 26 27 27 26 25 25 25 24 24 23 23 22 22 22 21 21 21 21 21 20 19 19 18 17 16 16 17 17 16 16 16 17 17 16 16 16 17 18 19 20 21 21 22
25 26 26 26 25 24 24 24 24 24 23 23 23 22 22 21 20 21 21 20 19 18 17 16 16 16 16 16 15 15 15 15 16 16 16 17 17 17 18 18 19 19 20 21
25 25 25 24 24 23 23 23 23 23 23 23 22 22 21 21 20 20 20 19 19 18 17 16 15 15 14 14 14 15 15 15 16 16 17 17 17 17 17 18 18 18 19 19
24 23 23 22 23 23 23 23 23 23 23 22 21 21 21 21 21 20 19 18 17 16 15 15 14 13 13 13 14 14 15 15 16 16 17 17 17 17 17 18 18 18 18 18
Wind_Direction
299 298 296 295 294 293 291 290 289 289 287 285 283 281 279 278 277 277 276 275 273 270 267 264 261 260 258 256 254 253 252 251 250 250 250 251 251 250 250 249 248 248 248 249
299 297 295 295 295 293 292 291 291 289 287 286 282 279 277 277 277 277 277 275 273 270 267 264 262 260 258 256 254 253 252 251 250 250 250 251 250 249 248 249 249 248 248 249
298 297 296 295 297 295 294 293 292 292 290 286 284 280 277 275 275 276 275 274 273 270 268 266 263 261 258 256 255 253 252 250 249 249 250 250 249 248 248 249 249 250 250 250
299 299 298 299 298 296 295 295 294 294 293 290 287 284 282 280 278 276 275 273 272 270 268 267 266 263 260 257 255 253 250 249 248 249 249 249 249 250 249 249 249 250 250 250
301 301 301 300 299 298 297 297 296 295 294 292 290 287 284 282 281 279 278 275 274 272 270 268 267 264 261 258 256 253 249 248 248 248 248 248 249 249 249 249 249 249 249 250
303 303 303 303 302 300 300 300 299 297 296 295 293 291 287 284 283 281 281 279 277 275 272 270 267 265 261 259 256 253 250 249 249 248 248 249 249 249 249 249 249 249 250 250
303 303 303 303 302 301 301 301 300 300 298 296 295 294 291 287 285 285 284 281 280 278 274 271 268 265 262 260 257 254 251 249 249 248 249 249 249 249 249 250 249 250 250 251
303 303 304 303 303 302 301 300 300 300 299 296 295 293 292 289 288 287 287 285 283 280 276 272 269 266 263 261 257 254 251 248 248 247 248 249 249 249 249 249 249 250 251 251
302 302 302 302 302 301 301 301 301 300 298 295 295 293 291 290 289 288 287 286 285 282 278 273 269 266 264 260 257 255 253 249 247 247 247 248 249 248 247 248 249 250 250 250
301 301 301 301 301 301 301 301 301 299 297 295 294 294 292 291 289 289 287 286 284 282 278 273 270 267 265 261 258 256 253 249 247 247 247 248 247 247 247 247 248 249 250 250
302 302 301 300 302 303 303 303 302 301 299 298 297 296 294 291 290 290 289 287 284 281 278 274 269 266 264 262 259 257 254 251 249 248 248 247 247 247 247 247 248 249 250 250
303 303 302 302 302 303 304 303 303 302 301 301 299 298 295 293 291 290 289 287 285 282 279 275 270 268 267 265 262 259 257 253 249 249 247 247 246 247 247 247 248 249 250 250
303 303 303 302 302 303 304 303 302 303 302 302 300 298 297 294 292 290 288 287 285 282 280 277 274 271 269 267 263 260 258 254 251 250 248 247 247 246 246 247 248 250 250 250
303 303 303 303 302 302 303 303 302 303 303 302 300 299 298 295 293 291 290 289 286 284 283 280 277 273 270 268 264 260 258 256 254 252 249 248 247 246 247 248 249 251 251 249
303 303 303 303 303 304 304 303 302 303 304 303 301 300 298 296 293 292 291 290 289 287 285 283 278 274 271 268 266 263 260 258 256 253 250 249 248 248 249 250 251 251 251 249
303 304 305 305 305 304 303 302 302 302 302 302 302 300 298 297 295 292 290 290 289 288 286 283 280 276 272 269 267 265 262 259 257 255 253 252 252 252 252 252 252 252 250 250
303 303 304 304 304 303 303 303 303 302 302 302 301 300 298 296 294 292 290 290 289 288 286 284 282 279 275 271 267 266 263 259 258 256 255 255 255 254 254 253 253 251 250 250
304 304 304 305 304 304 305 305 304 304 303 302 301 299 297 295 294 293 292 291 291 290 287 285 283 280 276 272 268 267 263 260 258 257 256 257 257 255 254 253 252 250 248 247
305 305 305 305 304 305 306 306 305 304 304 303 301 299 298 297 296 295 295 294 291 289 287 285 283 281 278 274 270 269 267 264 262 259 256 256 256 254 252 251 250 248 246 245
304 306 306 306 305 305 306 306 306 305 304 303 301 299 299 298 297 298 298 297 295 292 289 285 282 280 277 275 273 271 268 266 264 261 258 256 255 253 250 248 247 245 244 243
304 304 305 306 305 305 305 304 305 305 304 303 302 300 299 299 299 299 298 297 296 295 293 288 283 279 276 275 273 271 268 265 263 260 258 256 254 251 247 246 244 243 243 243
303 304 304 304 304 305 305 304 304 304 304 304 303 303 302 301 301 300 300 299 297 297 294 290 286 281 277 275 273 269 266 264 262 260 258 255 252 249 246 244 243 243 242 242
303 303 304 304 304 305 305 304 304 304 304 304 304 305 305 304 302 301 300 300 298 297 295 290 286 282 276 272 270 269 267 264 261 258 256 255 252 248 245 244 242 242 243 243
304 304 304 303 303 304 304 303 304 304 305 304 305 306 307 305 303 302 301 300 299 297 293 290 285 280 276 271 268 266 264 261 258 255 255 256 255 250 247 245 244 244 244 244
304 304 304 303 303 304 303 303 303 304 305 305 305 306 305 305 303 302 302 301 299 296 293 288 284 280 275 269 265 263 260 258 256 255 256 257 256 253 250 247 246 245 246 246
305 305 305 305 305 305 305 304 305 305 306 306 305 305 305 304 304 302 301 299 297 294 292 289 286 281 275 269 263 260 259 258 257 256 257 257 255 253 251 248 246 246 247 247
306 307 307 307 306 306 305 305 305 306 306 306 306 306 306 306 305 303 302 301 297 294 291 289 286 282 277 271 264 259 258 259 259 260 259 256 253 251 250 249 248 248 248 247